Location: Unspecified
(0.0000°N, 0.0000°E)
Time: 21:08:42
(UTC+00:00)

NOSS 3-1 (A) - Pass Details

Date: 29 April 2019
Orbit: 778 x 1434 km, 63.4° (Epoch: 13 May)

Event Time Altitude Azimuth Distance (km) Brightness Sun altitude
Rises 01:46:58 0° 18° (NNE) 4,383 7.2 -59.4°
Reaches altitude 10° 01:52:46 10° 49° (NE) 3,501 6.7 -58.1°
Maximum altitude 01:55:17 11° 66° (ENE) 3,411 6.7 -57.5°
Drops below altitude 10° 01:57:48 10° 83° (E) 3,535 6.7 -57.0°
Sets 02:03:40 0° 113° (ESE) 4,497 7.3 -55.7°
